Time,TemperatureF,DewpointF,PressureIn,WindDirection,WindDirectionDegrees,WindSpeedMPH,WindSpeedGustMPH,Humidity,HourlyPrecipIn,Conditions,Clouds,dailyrainin,SoftwareType,DateUTC
2013-02-18 14:10:00,36.0,14.0,29.23,West,270,0.0,0.0,40,0.00,,,0.01,Weather View 32 v70,2013-02-18 19:10:00,
2013-02-18 14:25:00,38.0,16.9,29.22,NW,315,0.0,0.0,42,0.00,,,0.01,Weather View 32 v70,2013-02-18 19:25:00,
2013-02-18 14:30:00,39.0,15.5,29.21,SSE,157,0.0,0.0,38,0.00,,,0.01,Weather View 32 v70,2013-02-18 19:30:00,
2013-02-18 14:35:00,38.0,15.2,29.21,ENE,67,0.0,6.0,39,0.00,,,0.01,Weather View 32 v70,2013-02-18 19:35:00,
2013-02-18 14:45:00,37.0,17.6,29.22,South,180,0.0,6.0,45,0.00,,,0.01,Weather View 32 v70,2013-02-18 19:45:00,
2013-02-18 14:50:00,37.0,18.6,29.22,East,90,0.0,6.0,47,0.00,,,0.01,Weather View 32 v70,2013-02-18 19:50:00,
2013-02-18 14:55:00,36.0,17.7,29.21,South,180,0.0,7.0,47,0.00,,,0.01,Weather View 32 v70,2013-02-18 19:55:00,
2013-02-18 15:05:00,36.0,17.7,29.23,SE,135,4.0,7.0,47,0.00,,,0.01,Weather View 32 v70,2013-02-18 20:05:00,
2013-02-18 15:10:00,36.0,19.6,29.23,ESE,112,1.0,7.0,51,0.00,,,0.01,Weather View 32 v70,2013-02-18 20:10:00,
2013-02-18 15:20:00,35.0,16.3,29.22,SE,135,2.0,7.0,46,0.00,,,0.01,Weather View 32 v70,2013-02-18 20:20:00,
2013-02-18 15:35:00,35.0,16.8,29.22,SE,135,4.0,7.0,47,0.00,,,0.01,Weather View 32 v70,2013-02-18 20:35:00,
2013-02-18 15:45:00,36.0,18.2,29.22,SE,135,9.0,10.0,48,0.00,,,0.01,Weather View 32 v70,2013-02-18 20:45:00,
2013-02-18 15:55:00,36.0,17.7,29.21,East,90,1.0,10.0,47,0.00,,,0.01,Weather View 32 v70,2013-02-18 20:55:00,
2013-02-18 16:00:00,36.0,17.7,29.21,ESE,112,5.0,10.0,47,0.00,,,0.01,Weather View 32 v70,2013-02-18 21:00:00,
2013-02-18 16:09:00,36.0,19.1,29.21,SE,135,4.0,10.0,50,0.00,,,0.01,Weather View 32 v70,2013-02-18 21:09:00,
2013-02-18 16:15:00,36.0,18.7,29.22,SSE,157,5.0,16.0,49,0.00,,,0.01,Weather View 32 v70,2013-02-18 21:15:00,
2013-02-18 16:20:00,36.0,20.5,29.21,SSE,157,4.0,16.0,53,0.00,,,0.01,Weather View 32 v70,2013-02-18 21:20:00,
2013-02-18 16:30:00,35.0,17.8,29.21,ESE,112,2.0,16.0,49,0.00,,,0.01,Weather View 32 v70,2013-02-18 21:30:00,
2013-02-18 16:40:00,36.0,17.7,29.21,SSE,157,0.0,16.0,47,0.00,,,0.01,Weather View 32 v70,2013-02-18 21:40:00,
2013-02-18 16:45:00,36.0,17.2,29.21,SE,135,1.0,16.0,46,0.00,,,0.01,Weather View 32 v70,2013-02-18 21:45:00,
2013-02-18 16:55:00,36.0,17.7,29.21,SE,135,2.0,16.0,47,0.00,,,0.01,Weather View 32 v70,2013-02-18 21:55:00,
2013-02-18 17:00:00,36.0,17.7,29.21,SE,135,2.0,16.0,47,0.00,,,0.01,Weather View 32 v70,2013-02-18 22:00:00,
2013-02-18 17:10:00,36.0,17.2,29.21,SE,135,4.0,16.0,46,0.00,,,0.01,Weather View 32 v70,2013-02-18 22:10:00,
2013-02-18 17:20:00,35.0,16.8,29.22,SE,135,1.0,9.0,47,0.00,,,0.01,Weather View 32 v70,2013-02-18 22:20:00,
2013-02-18 17:25:00,35.0,17.3,29.23,SE,135,2.0,9.0,48,0.00,,,0.01,Weather View 32 v70,2013-02-18 22:25:00,
2013-02-18 17:30:00,34.0,17.3,29.23,ESE,112,4.0,10.0,50,0.00,,,0.01,Weather View 32 v70,2013-02-18 22:30:00,
2013-02-18 17:40:00,34.0,17.8,29.23,SSE,157,10.0,10.0,51,0.00,,,0.01,Weather View 32 v70,2013-02-18 22:40:00,
2013-02-18 17:50:00,34.0,17.8,29.23,SE,135,10.0,13.0,51,0.00,,,0.01,Weather View 32 v70,2013-02-18 22:50:00,
2013-02-18 17:55:00,34.0,17.8,29.23,SE,135,10.0,13.0,51,0.00,,,0.01,Weather View 32 v70,2013-02-18 22:55:00,
2013-02-18 18:00:00,34.0,18.2,29.23,SSE,157,1.0,13.0,52,0.00,,,0.01,Weather View 32 v70,2013-02-18 23:00:00,
2013-02-18 18:20:00,34.0,16.8,29.22,ESE,112,10.0,13.0,49,0.00,,,0.01,Weather View 32 v70,2013-02-18 23:20:00,
2013-02-18 18:35:00,34.0,16.8,29.23,SE,135,10.0,13.0,49,0.00,,,0.01,Weather View 32 v70,2013-02-18 23:35:00,
2013-02-18 18:40:00,34.0,18.2,29.23,SE,135,0.0,13.0,52,0.00,,,0.01,Weather View 32 v70,2013-02-18 23:40:00,
2013-02-18 18:55:00,33.0,18.2,29.22,South,180,0.0,15.0,54,0.00,,,0.01,Weather View 32 v70,2013-02-18 23:55:00,
2013-02-18 19:05:00,34.0,17.8,29.22,South,180,1.0,15.0,51,0.00,,,0.01,Weather View 32 v70,2013-02-19 00:05:00,
2013-02-18 19:30:00,34.0,18.2,29.21,SSE,157,2.0,15.0,52,0.00,,,0.01,Weather View 32 v70,2013-02-19 00:30:00,
2013-02-18 19:40:00,34.0,17.8,29.21,ESE,112,1.0,15.0,51,0.00,,,0.01,Weather View 32 v70,2013-02-19 00:40:00,
2013-02-18 19:45:00,33.0,18.2,29.21,SSW,202,1.0,4.0,54,0.00,,,0.01,Weather View 32 v70,2013-02-19 00:45:00,
2013-02-18 20:35:00,34.0,16.8,29.19,SE,135,9.0,10.0,49,0.00,,,0.01,Weather View 32 v70,2013-02-19 01:35:00,
2013-02-18 20:45:00,34.0,17.3,29.19,SSE,157,9.0,10.0,50,0.00,,,0.01,Weather View 32 v70,2013-02-19 01:45:00,
2013-02-18 21:40:00,33.0,20.6,29.19,SE,135,9.0,9.0,60,0.00,,,0.01,Weather View 32 v70,2013-02-19 02:40:00,
2013-02-18 21:50:00,33.0,21.4,29.18,SE,135,12.0,12.0,62,0.00,,,0.01,Weather View 32 v70,2013-02-19 02:50:00,
2013-02-18 22:13:00,33.0,19.8,29.18,SE,135,15.0,15.0,58,0.00,,,0.01,Weather View 32 v70,2013-02-19 03:13:00,
2013-02-18 22:40:00,33.0,22.5,29.16,SSE,157,11.0,15.0,65,0.00,,,0.01,Weather View 32 v70,2013-02-19 03:40:00,
2013-02-18 23:40:00,33.0,23.2,29.15,South,180,11.0,11.0,67,0.00,,,0.01,Weather View 32 v70,2013-02-19 04:40:00,